User: anonymous   Login
Location: Invercargill
(46.4000°S, 168.3500°E)
Time: 15:23:57
(UTC+13:00)
Language:

SL-08 RB Rocket - Orbit

View from above orbital plane
View from above orbital plane
View from above satellite
View from above satellite

Ground track
Ground track

The orbit data is extracted from the following two-line orbital elements,

1 26387U 00033D   19293.82522395  .00000076  00000-0  21232-4 0  9999
2 26387  97.8545 340.3350 0027572 130.4924 326.5662 14.68495865 33440
Epoch (UTC): 20 October 2019 19:48:19
Eccentricity: 0.0027572
inclination: 97.8545°
perigee height: 646 km
apogee height: 685 km
right ascension of ascending node: 340.3350°
argument of perigee: 130.4924°
revolutions per day: 14.68495865
mean anomaly at epoch: 326.5662°
orbit number at epoch: 3344

The dashed part of the orbit path shows where the satellite is in the earth's shadow,  

DLR